Regional Weather Roundup
Issued by NWS

Home | Current Version | Previous Version | Graphics & Text | Print | Product List | Glossary On
Versions: 1 2 3 4 5 6 7 8 9 10 11 12 13 14 15 16 17 18 19 20 21 22 23 24 25 26 27 28 29 30 31 32 33 34 35 36 37 38 39 40 41 42 43 44 45 46 47 48 49 50
000
ASUS43 KLMK 240310
RWRKY
KENTUCKY REGIONAL WEATHER ROUNDUP
NATIONAL WEATHER SERVICE LOUISVILLE KY
1100 PM EDT THU OCT 23 2014

NOTE "FAIR" INDICATES FEW OR NO CLOUDS BELOW 12,000 FEET
WITH NO SIGNIFICANT WEATHER AND/OR OBSTRUCTIONS TO VISIBILITY.

KYZ001>023-026-027-061>063-070>075-240400-
WESTERN AND SOUTH CENTRAL KENTUCKY

CITY           SKY/WX    TMP DP  RH WIND       PRES   REMARKS
PADUCAH        PTCLDY    47  45  93 CALM      30.13F
HENDERSON      CLOUDY   N/A N/A N/A CALM      30.13F
OWENSBORO      CLOUDY    51  46  83 CALM      30.14R
HOPKINSVILLE   CLOUDY    51  46  82 SW3       30.14R
BOWLING GREEN  CLOUDY    48  44  86 CALM      30.14S
GLASGOW        CLOUDY    46  46 100 CALM      30.13F
$$

KYZ024-025-028>034-038-045-046-053-240400-
NORTH CENTRAL KENTUCKY

CITY           SKY/WX    TMP DP  RH WIND       PRES   REMARKS
LOUISVILLE/SDF CLOUDY    52  44  74 SE10      30.12F
LOUISVILLE/LOU CLOUDY    51  45  79 CALM      30.13F
FORT KNOX      CLOUDY    44  41  88 CALM      30.11F
$$

KYZ035>037-039>044-047>052-055>060-089>105-240400-
NORTHEAST KENTUCKY

CITY           SKY/WX    TMP DP  RH WIND       PRES   REMARKS
LEXINGTON      CLOUDY    49  42  77 CALM      30.14S
COVINGTON      CLOUDY    49  40  71 CALM      30.12F
FRANKFORT      CLOUDY    48  43  82 CALM      30.13F
$$

KYZ054-064>069-076>088-106>120-240400-
SOUTHEAST KENTUCKY

CITY           SKY/WX    TMP DP  RH WIND       PRES   REMARKS
JACKSON        PTCLDY    49  40  71 CALM      30.13F
LONDON         MOCLDY    46  42  86 CALM      30.13F
SOMERSET       CLOUDY    45  43  93 CALM      30.15S
MIDDLESBORO    MOCLDY    44  42  94 CALM      30.14F
MONTICELLO     MOCLDY    40  39  96 CALM      30.15S FOG
$$




USA.gov is the U.S. government's official web portal to all federal, state and local government web resources and services.